• Em Portugal
  • Lista de países
  • Para 7 dias
  • Temperatura da água
  • Mapas de satélite
  • Mapa do tempo
  • Widgets de tempo
  • user-avatar
    Iniciar Sessão

    Previsão horária em Haetchina

    Hoje, 15 Novembro, Quinta-feira

    Tempo Temperatura Precipitação Vento Pressão Humidade
    00:00 -1°C° 0 mm 1 m/s 748 mmHg 94%
    01:00 -1°C° 0 mm 1 m/s 749 mmHg 94%
    02:00 -1°C° 0 mm 1 m/s 749 mmHg 94%
    03:00 -1°C° 0 mm 1 m/s 750 mmHg 94%
    04:00 -1°C° 0 mm 1 m/s 750 mmHg 94%
    05:00 -1°C° 0 mm 1 m/s 750 mmHg 94%
    06:00 -1°C° 0 mm 1 m/s 751 mmHg 95%
    07:00 -3°C° 0 mm 2 m/s 752 mmHg 95%
    08:00 -3°C° 0 mm 2 m/s 752 mmHg 95%
    09:00 -2°C° 0 mm 2 m/s 753 mmHg 94%
    10:00 -1°C° 0 mm 2 m/s 753 mmHg 93%
    11:00 -1°C° 0 mm 2 m/s 754 mmHg 93%
    12:00 -1°C° 0 mm 2 m/s 754 mmHg 93%
    13:00 +1°C° 0 mm 2 m/s 755 mmHg 93%
    14:00 +1°C° 0 mm 2 m/s 755 mmHg 93%
    15:00 +1°C° 0 mm 1 m/s 756 mmHg 93%
    16:00 +1°C° 0 mm 1 m/s 756 mmHg 93%
    17:00 +1°C° 0 mm 1 m/s 756 mmHg 93%
    18:00 +1°C° 0 mm 1 m/s 757 mmHg 93%
    19:00 +1°C° 0 mm 1 m/s 757 mmHg 93%
    20:00 +1°C° 0 mm 1 m/s 758 mmHg 93%
    21:00 +1°C° 0 mm 1 m/s 758 mmHg 93%
    22:00 +1°C° 0 mm 1 m/s 758 mmHg 92%
    23:00 +1°C° 0 mm 1 m/s 759 mmHg 92%

    Amanhã, 16 Novembro, Sexta-feira

    Tempo Temperatura Precipitação Vento Pressão Humidade
    00:00 +1°C° 0 mm 1 m/s 759 mmHg 92%
    01:00 0°C° 0 mm 1 m/s 759 mmHg 92%
    02:00 0°C° 0 mm 1 m/s 760 mmHg 92%
    03:00 0°C° 0 mm 1 m/s 760 mmHg 91%
    04:00 0°C° 0 mm 1 m/s 760 mmHg 91%
    05:00 0°C° 0 mm 1 m/s 760 mmHg 91%
    06:00 0°C° 0 mm 1 m/s 761 mmHg 90%
    07:00 0°C° 0 mm 1 m/s 761 mmHg 90%
    08:00 -3°C° 0 mm 2 m/s 761 mmHg 90%
    09:00 0°C° 0 mm 1 m/s 761 mmHg 87%
    10:00 +1°C° 0 mm 1 m/s 762 mmHg 85%
    11:00 +1°C° 0 mm 1 m/s 762 mmHg 82%
    12:00 +1°C° 0 mm 1 m/s 762 mmHg 83%
    13:00 +2°C° 0 mm 1 m/s 762 mmHg 83%
    14:00 +2°C° 0 mm 1 m/s 762 mmHg 83%
    15:00 +1°C° 0 mm 1 m/s 762 mmHg 84%
    16:00 0°C° 0 mm 1 m/s 762 mmHg 84%
    17:00 -1°C° 0 mm 1 m/s 762 mmHg 84%
    18:00 -1°C° 0 mm 1 m/s 762 mmHg 83%
    19:00 -2°C° 0 mm 1 m/s 762 mmHg 82%
    20:00 -2°C° 0 mm 1 m/s 762 mmHg 81%
    21:00 -2°C° 0 mm 1 m/s 762 mmHg 80%
    22:00 -2°C° 0 mm 1 m/s 762 mmHg 78%
    23:00 -2°C° 0 mm 1 m/s 762 mmHg 77%

    Depois de amanhã, 17 Novembro, Sábado

    Tempo Temperatura Precipitação Vento Pressão Humidade
    00:00 -2°C° 0 mm 1 m/s 762 mmHg 76%
    01:00 -2°C° 0 mm 1 m/s 762 mmHg 74%
    02:00 -3°C° 0 mm 0 m/s 762 mmHg 73%
    03:00 -3°C° 0 mm 0 m/s 761 mmHg 73%
    04:00 -3°C° 0 mm 1 m/s 761 mmHg 72%
    05:00 -3°C° 0 mm 1 m/s 761 mmHg 72%
    06:00 -3°C° 0 mm 1 m/s 761 mmHg 73%
    07:00 -3°C° 0 mm 1 m/s 760 mmHg 74%
    08:00 -3°C° 0 mm 1 m/s 760 mmHg 75%
    09:00 -2°C° 0 mm 1 m/s 760 mmHg 74%
    10:00 -3°C° 0 mm 2 m/s 759 mmHg 73%
    11:00 -2°C° 0 mm 2 m/s 759 mmHg 72%
    12:00 -1°C° 0 mm 2 m/s 758 mmHg 75%
    13:00 -1°C° 0 mm 2 m/s 758 mmHg 77%
    14:00 -1°C° 0 mm 3 m/s 757 mmHg 80%
    15:00 -1°C° 0 mm 3 m/s 756 mmHg 83%
    16:00 -1°C° 0 mm 3 m/s 755 mmHg 86%
    17:00 -1°C° 0 mm 3 m/s 755 mmHg 89%
    18:00 -1°C° 0 mm 3 m/s 754 mmHg 91%
    19:00 -1°C° 0 mm 3 m/s 753 mmHg 92%
    20:00 -2°C° 0 mm 4 m/s 753 mmHg 93%
    21:00 -2°C° 0.1 mm 4 m/s 752 mmHg 94%
    22:00 -2°C° 0.1 mm 4 m/s 751 mmHg 95%
    23:00 -2°C° 0.1 mm 4 m/s 750 mmHg 96%

    18 Novembro, Domingo

    Tempo Temperatura Precipitação Vento Pressão Humidade
    00:00 -2°C° 0.1 mm 4 m/s 749 mmHg 96%
    01:00 -2°C° 0.1 mm 4 m/s 749 mmHg 96%
    02:00 -1°C° 0.1 mm 4 m/s 748 mmHg 97%
    03:00 0°C° 0.1 mm 3 m/s 747 mmHg 97%
    04:00 0°C° 0.1 mm 3 m/s 746 mmHg 97%
    05:00 0°C° 0.1 mm 3 m/s 745 mmHg 98%
    06:00 0°C° 0.2 mm 3 m/s 745 mmHg 98%
    07:00 0°C° 0.2 mm 3 m/s 744 mmHg 98%
    08:00 +1°C° 0.2 mm 2 m/s 744 mmHg 98%
    09:00 +1°C° 0.3 mm 2 m/s 744 mmHg 98%
    10:00 +1°C° 0.3 mm 2 m/s 743 mmHg 99%
    11:00 +1°C° 0.3 mm 2 m/s 743 mmHg 99%
    12:00 +1°C° 0.1 mm 2 m/s 743 mmHg 99%
    13:00 +1°C° 0.1 mm 2 m/s 742 mmHg 99%
    14:00 +3°C° 0.1 mm 1 m/s 742 mmHg 99%
    15:00 +2°C° 0.2 mm 1 m/s 742 mmHg 99%
    16:00 +2°C° 0.2 mm 1 m/s 742 mmHg 99%
    17:00 +2°C° 0.2 mm 1 m/s 742 mmHg 98%
    18:00 +2°C° 0.1 mm 1 m/s 742 mmHg 98%
    19:00 +1°C° 0.1 mm 2 m/s 742 mmHg 98%
    20:00 -1°C° 0.1 mm 2 m/s 742 mmHg 98%
    21:00 -1°C° 0.1 mm 2 m/s 743 mmHg 97%
    22:00 -1°C° 0.1 mm 2 m/s 743 mmHg 97%
    23:00 -1°C° 0.1 mm 3 m/s 744 mmHg 97%

    19 Novembro, Segunda-feira

    Tempo Temperatura Precipitação Vento Pressão Humidade
    00:00 -1°C° 0.1 mm 3 m/s 744 mmHg 96%
    01:00 -1°C° 0.1 mm 3 m/s 744 mmHg 96%
    02:00 -2°C° 0.1 mm 4 m/s 745 mmHg 95%
    03:00 -2°C° 0.1 mm 4 m/s 745 mmHg 94%
    04:00 -2°C° 0.1 mm 4 m/s 745 mmHg 93%
    05:00 -2°C° 0.1 mm 4 m/s 746 mmHg 93%
    06:00 -3°C° 0.1 mm 4 m/s 746 mmHg 93%
    07:00 -3°C° 0.1 mm 4 m/s 747 mmHg 92%
    08:00 -3°C° 0.1 mm 4 m/s 747 mmHg 92%
    09:00 -3°C° 0 mm 4 m/s 748 mmHg 91%
    10:00 -2°C° 0 mm 4 m/s 748 mmHg 90%
    11:00 -2°C° 0 mm 4 m/s 749 mmHg 89%
    12:00 -2°C° 0 mm 4 m/s 749 mmHg 89%
    13:00 -2°C° 0 mm 4 m/s 749 mmHg 88%
    14:00 -2°C° 0 mm 4 m/s 749 mmHg 88%
    15:00 -3°C° 0 mm 4 m/s 750 mmHg 87%
    16:00 -3°C° 0 mm 4 m/s 750 mmHg 87%
    17:00 -3°C° 0 mm 4 m/s 750 mmHg 87%
    18:00 -4°C° 0 mm 4 m/s 750 mmHg 86%
    19:00 -4°C° 0 mm 4 m/s 751 mmHg 84%
    20:00 -4°C° 0 mm 4 m/s 751 mmHg 83%
    21:00 -5°C° 0 mm 4 m/s 751 mmHg 83%
    22:00 -5°C° 0 mm 4 m/s 751 mmHg 82%
    23:00 -5°C° 0 mm 4 m/s 752 mmHg 82%

    20 Novembro, Terça-feira

    Tempo Temperatura Precipitação Vento Pressão Humidade
    00:00 -5°C° 0 mm 4 m/s 752 mmHg 83%
    01:00 -7°C° 0 mm 4 m/s 752 mmHg 84%
    02:00 -7°C° 0 mm 4 m/s 752 mmHg 84%
    03:00 -7°C° 0 mm 4 m/s 752 mmHg 85%
    04:00 -7°C° 0 mm 4 m/s 752 mmHg 86%
    05:00 -7°C° 0 mm 4 m/s 751 mmHg 86%
    06:00 -7°C° 0 mm 4 m/s 751 mmHg 87%
    07:00 -7°C° 0 mm 4 m/s 751 mmHg 87%
    08:00 -7°C° 0 mm 4 m/s 751 mmHg 87%
    09:00 -5°C° 0 mm 4 m/s 751 mmHg 86%
    10:00 -5°C° 0 mm 4 m/s 751 mmHg 85%
    11:00 -4°C° 0 mm 4 m/s 751 mmHg 84%
    12:00 -4°C° 0 mm 4 m/s 751 mmHg 84%
    13:00 -4°C° 0 mm 4 m/s 751 mmHg 84%
    14:00 -3°C° 0 mm 4 m/s 750 mmHg 85%
    15:00 -4°C° 0 mm 4 m/s 750 mmHg 87%
    16:00 -4°C° 0 mm 4 m/s 750 mmHg 89%
    17:00 -5°C° 0 mm 4 m/s 749 mmHg 91%
    18:00 -5°C° 0 mm 4 m/s 749 mmHg 90%
    19:00 -4°C° 0 mm 4 m/s 749 mmHg 90%
    20:00 -4°C° 0 mm 4 m/s 749 mmHg 89%
    21:00 -4°C° 0 mm 4 m/s 749 mmHg 90%
    22:00 -4°C° 0 mm 4 m/s 749 mmHg 90%
    23:00 -4°C° 0 mm 4 m/s 749 mmHg 91%
    Mostrar mais